Location: Rooftop Observatory
(39.0308°N, 87.1711°W)
Time: 23:19:07
(UTC-06:00)

Daily predictions for brighter satellites

Satellite Brightness Start Highest point End
(mag) Time Altitude Azimuth Time Altitude Azimuth Time Altitude Azimuth
SKYMED 2 3.6 17:51:53 10° NNE 17:56:15 83° ESE 18:00:35 10° S
MOS 1 4.3 17:54:00 10° SSE 17:59:34 65° ENE 18:05:12 10° N
Lacrosse 4 Rocket 3.9 17:56:40 10° NW 18:00:19 29° WSW 18:04:01 10° S
Ariane Rocket 4.3 17:56:00 10° S 18:00:53 47° W 18:05:49 10° NNW
Landsat 4 3.8 17:57:18 10° NNE 18:00:59 52° E 18:04:38 10° S
Shenzhou-11 Module 2.0 17:59:06 10° WNW 18:02:06 77° SSW 18:05:05 10° ESE
DELTA 2 R/B (2) 3.2 18:06:11 10° W 18:07:53 51° S 18:09:26 12° ESE
Cosmos 1862 4.4 18:04:08 10° SSW 18:08:00 50° W 18:11:52 10° N
CZ-4 R/B 3.2 18:04:52 10° SSW 18:08:42 38° W 18:12:27 10° NNW
DNEPR-1 R/B 3.4 18:05:34 10° SSW 18:09:46 74° ESE 18:14:02 10° NE
SJ-6B 4.3 18:07:22 10° ESE 18:09:48 17° ENE 18:12:17 10° NNE
SPOT 3 Rocket 3.6 18:04:55 10° SSE 18:10:01 62° ENE 18:15:10 10° N
MTI 3.7 18:08:11 10° NNE 18:11:23 87° W 18:14:35 10° SSW
Cosmos 2056 Rocket 3.5 18:06:16 10° NNW 18:11:43 76° ENE 18:17:07 10° SSE
Cosmos 2084 Rocket 3.7 18:08:58 10° SW 18:13:23 72° NW 18:17:36 10° NNE
Cosmos 2233 Rocket 4.0 18:08:34 10° N 18:14:53 80° E 18:21:07 10° S
Cosmos 2219 Rocket 2.8 18:09:42 10° NNW 18:15:18 61° WSW 18:20:49 10° S
CENTAUR R/B 3.1 18:11:59 10° S 18:17:10 34° ESE 18:22:58 10° NE
Cosmos 1452 Rocket 4.2 18:13:13 10° N 18:17:59 33° ENE 18:22:41 10° SE
MOS 1-B Rocket 4.2 18:11:47 10° SSE 18:18:27 85° WSW 18:24:20 10° NNW
Tiangong 2 1.4 18:20:13 10° WNW 18:23:20 52° NNE 18:25:22 19° E
NOAA 12 4.3 18:19:45 10° S 18:25:02 78° WSW 18:30:23 10° NNW
Cosmos 2227 Rocket 2.3 18:20:01 10° SSW 18:25:40 86° WNW 18:31:22 10° NNE
Cosmos 2237 Rocket 2.1 18:22:19 10° NNW 18:27:58 85° ENE 18:33:36 10° SSE
FREGAT/IRIS 2.9 18:25:42 10° SE 18:28:29 40° ENE 18:31:18 10° N
Cosmos 405 2.8 18:25:40 10° S 18:29:08 76° E 18:32:39 10° NNE
Sich 1 Rocket 4.5 18:25:46 10° SSE 18:29:35 27° E 18:33:23 10° NNE
Cosmos 1464 Rocket 4.3 18:23:59 10° N 18:29:48 43° ENE 18:35:34 10° SSE
SL-16 R/B 2.8 18:25:03 10° N 18:30:16 36° ENE 18:35:27 10° SE
H-2A R/B 2.7 18:29:14 10° SSE 18:33:09 78° ENE 18:37:04 10° N
Cosmos 1378 Rocket 4.1 18:30:32 10° N 18:34:35 35° ENE 18:38:39 10° SE
Cosmos 158 Rocket 4.0 18:33:45 10° S 18:38:29 50° ESE 18:43:12 10° NNE
Meteor 1-20 Rocket 4.3 18:33:28 10° S 18:38:56 53° E 18:44:31 10° NNE
Iridium 4 Rocket 3.6 18:34:24 10° NNE 18:39:07 42° E 18:43:26 10° SSE
Cosmos 2297 Rocket 2.4 18:34:20 10° SSW 18:39:59 77° WNW 18:45:41 10° NNE
Cosmos 1420 Rocket 4.4 18:35:39 10° N 18:40:40 42° ENE 18:45:41 10° SE
NOSS 3-2 (A) 4.3 18:37:36 10° SW 18:43:19 48° NW 18:49:39 10° NNE
ATLAS 3B R/B 4.2 18:37:31 10° WSW 18:43:59 35° NW 18:50:17 10° NNE
CZ-2D R/B 3.8 18:43:08 15° SE 18:46:01 37° ENE 18:49:38 10° N
Meteor 1-18 Rocket 4.3 18:40:35 10° N 18:46:05 53° ENE 18:51:28 10° SSE
Lacrosse 5 2.3 18:45:33 10° NW 18:50:33 62° SW 18:55:31 10° SSE
ALOS 4.4 18:47:51 10° SSW 18:51:55 29° W 18:56:00 10° NW
Cosmos 1812 2.8 18:50:09 10° N 18:54:02 78° W 18:57:53 10° S
FALCON 9 R/B 4.3 18:49:46 10° W 18:57:12 73° S 19:15:44 23° ESE
ERS-2 2.6 18:56:43 10° S 19:00:22 62° WSW 19:04:02 10° NNW
CRYOSAT 2 4.4 18:56:09 10° NNE 19:00:55 51° E 19:05:38 10° SSE
Cosmos 2333 Rocket 4.3 18:56:15 10° NW 19:01:01 29° WSW 19:05:45 10° SSW
Meteor 1-25 Rocket 4.1 18:55:49 10° S 19:01:21 90° W 19:06:57 10° N
Cosmos 44 3.4 18:58:08 10° NNW 19:03:09 65° ENE 19:05:50 28° SE
Cosmos 2034 Rocket 4.0 18:57:34 10° N 19:03:53 60° E 19:10:08 10° SSE
Thor Agena Rocket 3.4 18:59:36 10° NNE 19:04:43 71° ESE 19:09:44 10° S
BREEZE-M DEB (TANK) 3.7 19:02:52 10° SSW 19:05:39 38° ESE 19:05:47 38° ESE
Cosmos 468 4.4 19:01:29 10° SSW 19:06:46 86° ESE 19:12:02 10° NNE
Cosmos 1891 Rocket 4.3 19:01:22 10° N 19:07:37 77° E 19:13:43 10° S
Cosmos 1437 Rocket 3.1 19:06:38 10° S 19:09:55 48° SE 19:09:55 48° SE
USA 32 3.9 19:06:38 10° S 19:11:52 80° E 19:17:06 10° N
Cosmos 1633 3.3 19:08:36 10° SSW 19:12:04 53° W 19:15:34 10° N
Envisat 2.9 19:07:47 10° SSE 19:12:49 70° ENE 19:17:53 10° N
CZ-4C R/B 4.2 19:11:21 10° N 19:16:10 19° NE 19:16:56 19° NE
Cosmos 1269 Rocket 4.0 19:11:05 10° S 19:16:15 59° ESE 19:18:52 29° NE
SL-8 R/B 3.8 19:12:20 10° WSW 19:17:06 68° NNW 19:18:36 42° NE
Cosmos 1908 Rocket 4.0 19:13:19 10° SSW 19:17:44 63° W 19:22:11 10° N
Cosmos 1816 Rocket 4.5 19:14:30 10° S 19:20:42 59° E 19:26:57 10° NNE
SeaSat 1 2.4 19:18:12 22° SSE 19:21:25 85° WSW 19:26:23 10° NNW
USA 215 3.6 19:18:48 17° NE 19:23:59 64° NW 19:30:26 10° WSW
Cosmos 2227 4.4 19:18:53 10° S 19:23:58 47° ESE 19:23:58 47° ESE
Resurs 1-3 4.4 19:26:38 38° NNE 19:26:38 38° NNE 19:29:34 10° N
ARGOS Delta rocket 3.8 19:20:23 10° N 19:25:19 82° WNW 19:29:56 10° SSW
Resurs 01 Rocket 2.3 19:33:23 41° N 19:33:23 41° N 19:36:22 10° N
Cosmos 921 Rocket 3.2 19:29:53 10° NNW 19:33:43 62° N 19:33:43 62° N
OAO 2 Rocket 3.9 19:30:01 10° WSW 19:34:20 42° S 19:34:20 42° S
Cosmos 1975 Rocket 3.7 19:41:47 10° NNW 19:45:11 51° NNW 19:45:11 51° NNW
Tsikada Rocket 4.3 19:47:38 10° SSW 19:54:00 70° W 20:00:26 10° N
USA 267 3.4 19:56:05 54° NE 19:56:06 54° NE 20:02:26 10° NW
Tiangong 2 4.4 19:57:05 10° W 19:57:38 14° W 19:57:38 14° W
Spot 2 Rocket 4.3 20:04:39 44° NNW 20:04:39 44° NNW 20:08:08 10° NNW
Cosmos 44 Rocket 4.2 19:59:58 10° NW 20:04:47 47° WSW 20:04:47 47° WSW
CENTAUR R/B 3.5 20:01:52 10° WSW 20:07:35 42° NW 20:11:51 20° NNE
SL-16 R/B 3.9 20:09:22 10° NW 20:14:13 30° WSW 20:17:32 17° SSW
CZ-4C R/B 4.2 20:58:45 10° NNW 21:02:08 31° NNW 21:02:08 31° NNW
